AMC-6 (GE-6)            
1 26580U 00067A   19266.42263128 -.00000226  00000-0  00000+0 0  9996
2 26580   0.0167 153.7561 0002815  53.5699 223.8026  1.00269096 69335
SL-12 R/B(2)            
1 26583U 00067D   19266.09793289 -.00000184  00000-0  00000+0 0  9991
2 26583  17.2277 217.3648 5460048 169.3452 210.0075  1.93856128133993